Andrews AFB, MD

7:59 AM EST on November 12, 2019 (GMT -0500)
Andrews Air Force Base-Naf

Weather History for KADW - October, 2019

Change the Weather History Date:

Sunday, October 20, 2019

  Actual Average Record
Temperature  
Mean Temperature 54 °F -  
Max Temperature 56 °F 62 °F 81 °F (2016)
Min Temperature 52 °F 43 °F 33 °F (2008)
Degree Days  
Heating Degree Days 12    
Growing Degree Days 4 (Base 50)    
Moisture  
Dew Point 54 °F    
Average Humidity 96    
Maximum Humidity 100    
Minimum Humidity 81    
Precipitation  
Precipitation 1.72 in - - ()
Sea Level Pressure  
Sea Level Pressure 29.91 in    
Wind  
Wind Speed 8 mph (NNE)    
Max Wind Speed 18 mph    
Max Gust Speed 28 mph    
Visibility 7 miles    
Events Rain    
Averages and records for this station are not official NWS values.
T = Trace of Precipitation, MM = Missing Value Source: NWS Daily Summary

Daily Weather History Graph

Daily Weather History Graph

Search for Another Location

Airport or City:

Astronomy

Oct. 20, 2019 Rise Set
Actual Time 7:21 AM EDT 6:22 PM EDT
Civil Twilight 6:54 AM EDT 6:49 PM EDT
Nautical Twilight 6:23 AM EDT 7:20 PM EDT
Astronomical Twilight 5:52 AM EDT 7:51 PM EDT
Moon 11:31 PM EDT (10/20) 1:45 PM EDT (10/20)
Length of Visible Light 11h 54m
Length of Day
11h 00m
Waning Gibbous, 59% of the Moon is Illuminated
Oct 20
Waning Gibbous
Oct 21
Last Quarter
Oct 27
New
Nov 4
First Quarter
Nov 12
Full

Hourly Weather History & Observations

Time (EDT) Temp. Dew Point Humidity Pressure Visibility Wind Dir Wind Speed Gust Speed Precip Events Conditions
12:56 AM 52.3 °F 46.8 °F 81% 30.02 in 10.0 mi SSE 4.6 mph - N/A   Scattered Clouds
1:56 AM 52.0 °F 47.3 °F 84% 30.01 in 10.0 mi SSE 3.5 mph - N/A   Mostly Cloudy
2:56 AM 54.3 °F 49.3 °F 83% 29.99 in 10.0 mi Calm Calm - N/A   Overcast
3:56 AM 54.3 °F 49.8 °F 85% 29.97 in 10.0 mi Calm Calm - N/A   Overcast
4:17 AM 55.4 °F 50.0 °F 82% 29.96 in 10.0 mi Calm Calm - N/A   Light Drizzle
4:31 AM 55.4 °F 50.0 °F 82% 29.96 in 10.0 mi Calm Calm - N/A   Overcast
4:51 AM 55.4 °F 50.0 °F 82% 29.96 in 10.0 mi Calm Calm - N/A   Light Drizzle
4:56 AM 55.2 °F 51.1 °F 86% 29.96 in 10.0 mi Calm Calm - 0.00 in   Light Drizzle
5:56 AM 54.3 °F 52.7 °F 94% 29.97 in 10.0 mi Calm Calm - 0.03 in Rain Light Rain
5:57 AM 55.4 °F 53.6 °F 94% 29.98 in 10.0 mi Calm Calm - N/A Rain Light Rain
6:07 AM 55.4 °F 53.6 °F 94% 29.98 in 9.0 mi Calm Calm - N/A Rain Light Rain
6:56 AM 54.7 °F 53.8 °F 97% 29.98 in 8.0 mi Calm Calm - 0.10 in Rain Light Rain
7:16 AM 55.4 °F 53.6 °F 94% 29.98 in 8.0 mi Calm Calm - N/A Rain Light Rain
7:25 AM 55.4 °F 53.6 °F 94% 29.97 in 6.0 mi Calm Calm - N/A Rain Light Rain
7:56 AM 54.0 °F 52.9 °F 96% 29.97 in 7.0 mi Calm Calm - 0.10 in Rain Light Rain
8:29 AM 53.6 °F 53.6 °F 100% 29.97 in 7.0 mi Calm Calm - N/A Rain Rain
8:56 AM 53.6 °F 52.7 °F 97% 29.98 in 5.0 mi Calm Calm - 0.12 in Rain Rain
9:56 AM 54.1 °F 53.8 °F 99% 29.97 in 4.0 mi NE 6.9 mph - 0.17 in Rain Rain
10:56 AM 55.0 °F 54.7 °F 99% 29.95 in 6.0 mi NE 10.4 mph - 0.15 in Rain Rain
11:56 AM 54.7 °F 54.3 °F 99% 29.92 in 4.0 mi NNE 12.7 mph 20.7 mph 0.21 in Rain Rain
12:09 PM 55.4 °F 53.6 °F 94% 29.91 in 2.5 mi NNE 15.0 mph - N/A Rain Heavy Rain
12:10 PM 55.4 °F 53.6 °F 94% 29.91 in 1.9 mi NNE 15.0 mph - N/A Rain Heavy Rain
12:19 PM 55.4 °F 53.6 °F 94% 29.91 in 2.0 mi NNE 9.2 mph - N/A Rain Heavy Rain
12:28 PM 55.4 °F 55.4 °F 100% 29.90 in 3.0 mi NNE 13.8 mph - N/A Rain Rain
12:56 PM 55.0 °F 54.7 °F 99% 29.89 in 4.0 mi NNE 13.8 mph 20.7 mph 0.31 in Rain Rain
1:56 PM 55.0 °F 54.7 °F 99% 29.85 in 8.0 mi NNE 18.4 mph 25.3 mph 0.10 in Rain Light Rain
2:13 PM 55.4 °F 55.4 °F 100% 29.83 in 2.5 mi NNE 18.4 mph 26.5 mph N/A Rain Light Rain
2:16 PM 55.4 °F 55.4 °F 100% 29.83 in 3.0 mi NNE 17.3 mph 26.5 mph N/A   Overcast
2:19 PM 55.4 °F 55.4 °F 100% 29.83 in 4.0 mi NNE 17.3 mph 25.3 mph N/A Rain Rain
2:26 PM 55.4 °F 55.4 °F 100% 29.83 in 2.8 mi NNE 16.1 mph 24.2 mph N/A Rain Rain
2:38 PM 55.4 °F 55.4 °F 100% 29.83 in 3.0 mi North 17.3 mph 23.0 mph N/A Rain Light Rain
2:56 PM 55.9 °F 55.6 °F 99% 29.83 in 4.0 mi NNE 17.3 mph - 0.07 in Rain Light Rain
3:06 PM 55.4 °F 55.4 °F 100% 29.84 in 4.0 mi NNE 13.8 mph 24.2 mph N/A Rain Rain
3:17 PM 55.4 °F 55.4 °F 100% 29.83 in 2.8 mi NNE 15.0 mph 23.0 mph N/A Rain Rain
3:27 PM 55.4 °F 55.4 °F 100% 29.84 in 2.0 mi NNE 16.1 mph 21.9 mph N/A Rain Rain
3:56 PM 55.9 °F 55.6 °F 99% 29.84 in 2.8 mi NNE 17.3 mph 23.0 mph 0.13 in Rain Rain
4:01 PM 55.4 °F 55.4 °F 100% 29.85 in 3.0 mi North 16.1 mph 23.0 mph N/A Rain Light Rain
4:51 PM 55.4 °F 55.4 °F 100% 29.86 in 6.0 mi North 18.4 mph 27.6 mph N/A   Overcast
4:56 PM 55.9 °F 55.6 °F 99% 29.86 in 6.0 mi North 17.3 mph 27.6 mph 0.10 in   Overcast
4:57 PM 55.4 °F 55.4 °F 100% 29.86 in 5.0 mi North 16.1 mph 25.3 mph N/A Rain Light Rain
5:12 PM 55.4 °F 55.4 °F 100% 29.86 in 4.0 mi North 18.4 mph 24.2 mph N/A   Overcast
5:14 PM 55.4 °F 55.4 °F 100% 29.86 in 4.0 mi North 17.3 mph 24.2 mph N/A Rain Light Rain
5:17 PM 55.4 °F 55.4 °F 100% 29.86 in 2.8 mi North 16.1 mph 24.2 mph N/A Rain Light Rain
5:26 PM 55.4 °F 55.4 °F 100% 29.86 in 3.0 mi North 16.1 mph 26.5 mph N/A Rain Rain
5:56 PM 55.6 °F 55.0 °F 98% 29.87 in 4.0 mi North 15.0 mph 24.2 mph 0.09 in Rain Light Rain
6:36 PM 55.4 °F 55.4 °F 100% 29.88 in 10.0 mi North 12.7 mph - N/A Rain Light Rain
6:56 PM 55.6 °F 55.0 °F 98% 29.89 in 10.0 mi North 11.5 mph 20.7 mph 0.04 in Rain Light Rain
7:06 PM 55.4 °F 55.4 °F 100% 29.89 in 10.0 mi North 15.0 mph - N/A   Light Drizzle
7:07 PM 55.4 °F 55.4 °F 100% 29.89 in 10.0 mi North 12.7 mph - N/A   Overcast
7:17 PM 55.4 °F 55.4 °F 100% 29.90 in 10.0 mi North 13.8 mph - N/A   Overcast
7:36 PM 55.4 °F 55.4 °F 100% 29.90 in 10.0 mi North 12.7 mph 21.9 mph N/A   Light Drizzle
7:48 PM 55.4 °F 55.4 °F 100% 29.91 in 10.0 mi North 15.0 mph 20.7 mph N/A Rain Light Rain
7:56 PM 55.2 °F 54.7 °F 98% 29.91 in 10.0 mi North 12.7 mph 20.7 mph 0.00 in Rain Light Rain
7:57 PM 55.4 °F 55.4 °F 100% 29.91 in 10.0 mi North 11.5 mph - N/A   Overcast
7:59 PM 55.4 °F 55.4 °F 100% 29.91 in 10.0 mi North 13.8 mph - N/A   Light Drizzle
8:27 PM 55.4 °F 53.6 °F 94% 29.92 in 10.0 mi North 11.5 mph 19.6 mph N/A   Overcast
8:37 PM 55.4 °F 53.6 °F 94% 29.92 in 10.0 mi North 13.8 mph 19.6 mph N/A   Overcast
8:56 PM 54.7 °F 53.8 °F 97% 29.93 in 10.0 mi North 11.5 mph - 0.00 in   Overcast
9:06 PM 55.4 °F 53.6 °F 94% 29.94 in 10.0 mi North 13.8 mph - N/A   Overcast
9:10 PM 55.4 °F 53.6 °F 94% 29.94 in 9.0 mi North 11.5 mph - N/A Rain Light Rain
9:16 PM 55.4 °F 53.6 °F 94% 29.94 in 8.0 mi North 12.7 mph - N/A Rain Light Rain
9:29 PM 55.4 °F 53.6 °F 94% 29.93 in 10.0 mi NNE 10.4 mph - N/A   Overcast
9:49 PM 53.6 °F 53.6 °F 100% 29.94 in 10.0 mi North 11.5 mph - N/A   Overcast
9:56 PM 54.3 °F 53.4 °F 97% 29.94 in 10.0 mi North 9.2 mph - 0.00 in   Overcast
10:33 PM 53.6 °F 53.6 °F 100% 29.96 in 10.0 mi North 9.2 mph - N/A   Light Drizzle
10:44 PM 53.6 °F 53.6 °F 100% 29.97 in 10.0 mi North 9.2 mph - N/A   Overcast
10:56 PM 54.1 °F 53.1 °F 96% 29.97 in 10.0 mi North 8.1 mph - 0.00 in   Overcast
11:16 PM 53.6 °F 53.6 °F 100% 29.97 in 10.0 mi North 5.8 mph - N/A   Overcast
11:56 PM 54.3 °F 53.2 °F 96% 29.97 in 10.0 mi NNW 8.1 mph - N/A   Overcast